Home   Weather   Addis Ababa   Past weeks

Flag for Ethiopia Past Weather in Addis Ababa, Ethiopia — Yesterday and Last 2 Weeks

Now
63 °F

Passing clouds.


Feels Like: 63 °F
Forecast: 54 / 74 °F
Wind: 6 mph from Northwest

Location: Addis Ababa Airport

Current Time: Apr 26, 2017 at 9:14:20 pm

Latest Report: Apr 26, 2017 at 8:00 pm


Visibility: N/A

Pressure: 30.30 "Hg (22.96 "Hg at 2354m altitude)

Humidity: 68%

Dew Point: 52 °F

Location of Addis AbabaLocation

Past Weather in Addis Ababa — Graph

°F

Addis Ababa Temperature Yesterday

High & Low Weather Summary for the Past Weeks

 TemperatureHumidityPressure
High81 °F (Apr 15, 2:00 pm)82% (Apr 20, 7:00 am)30.39 "Hg (Apr 20, 7:00 am)
Low52 °F (Apr 24, 6:00 am)14% (Apr 24, 10:00 am)30.18 "Hg (Apr 15, 4:00 pm)
Average69 °F41%30.28 "Hg
* Reported Apr 14 7:00 pm — Apr 26 8:00 pm, Addis Ababa, Weather by CustomWeather, © 2017

Note: Actual official high and low records may vary slightly from our data, if they occured in-between our weather recording intervals... More about our weather records

Advertising

Addis Ababa Weather History for the Previous 24 Hours

Scroll right to see more
 ConditionsComfort  
Time TempWeatherWind HumidityBarometerVisibility
8:00 pm
Wed, Apr 26
63 °FPassing clouds.6 mph68%30.30 "HgN/A
7:00 pm63 °FRain. Passing clouds.9 mph73%30.27 "Hg4 mi
6:00 pm70 °FPartly sunny.8 mph46%30.24 "HgN/A
5:00 pm70 °FPartly sunny.17 mph50%30.21 "HgN/A
4:00 pm77 °FScattered clouds.5 mph28%30.21 "HgN/A
3:00 pm81 °FScattered clouds.8 mph26%30.24 "HgN/A
2:00 pm77 °FScattered clouds.8 mph30%30.27 "HgN/A
10:00 am68 °FPartly sunny.12 mph56%30.39 "HgN/A
9:00 am66 °FScattered clouds.9 mph60%30.39 "HgN/A
8:00 am63 °FScattered clouds.7 mph68%30.36 "HgN/A
7:00 am59 °FPassing clouds.5 mph82%30.33 "HgN/A
6:00 am57 °FPassing clouds.8 mph82%30.33 "HgN/A
5:00 am57 °FPassing clouds.1 mph77%30.30 "HgN/A
4:00 am59 °FPassing clouds.5 mph77%30.27 "HgN/A
3:00 am61 °FPassing clouds.6 mph68%30.27 "HgN/A
2:00 am61 °FPassing clouds.5 mph77%30.30 "HgN/A
Weather by CustomWeather, © 2017

See weather overviewHow to use our weather pages